FW8621 Weather Reports


Display with metric or nautical units.
time (UTC)temp
F
wind
direction
speed
MPH
gust
MPH
rain 1hr
in
rain 24hr
in
rain mn
in
humidity
%
barometer
mb
20260906043103 71 0 0.0 0.0 0.00 0.00 0.00 76 1022.0
20260906041614 71 0 0.0 0.0 0.00 0.00 0.00 77 1022.0
20260906040115 71 0 0.0 0.0 0.00 0.00 0.00 76 1022.0
20260906034606 71 0 0.0 0.0 0.00 0.00 0.00 75 1021.6
20260906033107 72 0 0.0 0.0 0.00 0.00 0.00 76 1021.4
20260906031611 71 0 0.0 0.0 0.00 0.00 0.00 76 1021.5
20260906030120 71 0 0.0 0.0 0.00 0.00 0.00 76 1021.5
20260906024630 72 0 0.0 0.0 0.00 0.00 0.00 76 1021.4
20260906023104 72 0 0.0 0.0 0.00 0.00 0.00 75 1021.5
20260906021619 72 0 0.0 1.0 0.00 0.00 0.00 74 1021.3
20260906020115 72 0 0.0 0.0 0.00 0.00 0.00 74 1021.4
20260906014612 72 0 0.0 1.0 0.00 0.00 0.00 74 1021.3
20260906013104 73 0 0.0 0.0 0.00 0.00 0.00 75 1021.2
20260906011604 72 0 0.0 0.0 0.00 0.00 0.00 75 1021.3
20260906010119 73 0 0.0 1.0 0.00 0.00 0.00 72 1021.3
20260906004610 73 0 0.0 1.0 0.00 0.00 0.00 70 1021.1
20260906003120 73 0 0.0 0.0 0.00 0.00 0.00 71 1021.0
20260906001608 73 0 0.0 0.0 0.00 0.00 0.00 69 1021.1
20260906000109 74 0 0.0 0.0 0.00 0.00 0.00 69 1021.2
20260905234609 74 0 0.0 0.0 0.00 0.00 0.00 71 1021.0
20260905233104 74 0 0.0 0.0 0.00 0.00 0.00 71 1021.1
20260905231608 74 0 0.0 0.0 0.00 0.00 0.00 72 1021.1
20260905230111 74 0 0.0 0.0 0.00 0.00 0.00 74 1021.0
20260905224605 75 0 0.0 0.0 0.00 0.00 0.00 76 1021.1
20260905223105 75 0 0.0 0.0 0.00 0.00 0.00 77 1021.1
20260905221603 75 0 0.0 0.0 0.00 0.00 0.00 76 1021.1
20260905220106 75 0 0.0 0.0 0.00 0.00 0.00 77 1021.0
20260905214609 76 0 0.0 0.0 0.00 0.00 0.00 79 1021.0
20260905213105 76 0 0.0 0.0 0.00 0.00 0.00 79 1020.9
20260905211606 76 0 0.0 0.0 0.00 0.00 0.00 79 1020.9
20260905210108 77 0 0.0 0.0 0.00 0.00 0.00 79 1020.9
20260905204613 77 0 0.0 0.0 0.00 0.00 0.00 79 1020.8
20260905203111 78 0 0.0 0.0 0.00 0.00 0.00 78 1020.8
20260905201604 78 0 0.0 0.0 0.00 0.00 0.00 77 1020.8
20260905200109 79 0 0.0 0.0 0.00 0.00 0.00 76 1020.8
20260905194616 80 0 0.0 0.0 0.00 0.00 0.00 76 1020.6
20260905193110 80 0 0.0 0.0 0.00 0.00 0.00 75 1020.6
20260905191611 80 0 0.0 0.0 0.00 0.00 0.00 75 1020.5
20260905190107 81 0 0.0 0.0 0.00 0.00 0.00 74 1020.5
20260905184613 81 0 0.0 0.0 0.00 0.00 0.00 73 1020.5
20260905183106 82 0 0.0 0.0 0.00 0.00 0.00 71 1020.3
20260905181605 83 0 0.0 1.0 0.00 0.00 0.00 70 1020.2
20260905180108 84 0 0.0 0.0 0.00 0.00 0.00 69 1020.0
20260905174605 85 0 0.0 1.0 0.00 0.00 0.00 67 1020.0
20260905173106 86 0 0.0 1.0 0.00 0.00 0.00 63 1019.7
20260905171603 87 0 0.0 1.0 0.00 0.00 0.00 57 1019.6
20260905170114 88 0 0.0 2.0 0.00 0.00 0.00 53 1019.6
20260905164606 90 148 0.0 1.0 0.00 0.00 0.00 48 1019.6
20260905163111 94 0 0.0 2.0 0.00 0.00 0.00 44 1019.6
20260905161604 98 0 0.0 1.0 0.00 0.00 0.00 36 1019.3
20260905160107 99 0 0.0 1.0 0.00 0.00 0.00 36 1019.2
20260905154606 99 0 0.0 2.0 0.00 0.00 0.00 37 1019.4
20260905153104 99 0 0.0 1.0 0.00 0.00 0.00 38 1019.3
20260905151608 98 0 0.0 1.0 0.00 0.00 0.00 40 1019.3
20260905150104 100 120 0.0 4.0 0.00 0.00 0.00 36 1019.3
20260905144602 99 290 0.0 2.0 0.00 0.00 0.00 39 1019.4
20260905143110 99 0 0.0 2.0 0.00 0.00 0.00 38 1019.5
20260905141602 96 0 0.0 3.0 0.00 0.00 0.00 42 1019.6
20260905140104 96 124 0.0 1.0 0.00 0.00 0.00 44 1019.5
20260905134603 94 0 0.0 1.0 0.00 0.00 0.00 45 1019.7
20260905133105 93 0 0.0 1.0 0.00 0.00 0.00 48 1019.6
20260905131605 93 157 0.0 1.0 0.00 0.00 0.00 51 1019.5
20260905124604 94 0 0.0 1.0 0.00 0.00 0.00 47 1019.6
20260905123110 93 0 0.0 1.0 0.00 0.00 0.00 46 1019.6
20260905121605 93 0 0.0 1.0 0.00 0.00 0.00 47 1019.6
20260905120107 93 327 0.0 1.0 0.00 0.00 0.00 43 1019.6
20260905114601 93 60 0.0 1.0 0.00 0.00 0.00 42 1019.8
20260905113108 92 0 0.0 1.0 0.00 0.00 0.00 42 1019.9
20260905111647 93 0 0.0 1.0 0.00 0.00 0.00 43 1019.9
20260905104606 92 0 0.0 1.0 0.00 0.00 0.00 47 1019.8
20260905103104 92 0 0.0 1.0 0.00 0.00 0.00 48 1019.7
20260905101608 93 0 0.0 2.0 0.00 0.00 0.00 44 1019.7
20260905100110 93 0 0.0 1.0 0.00 0.00 0.00 40 1019.9
20260905094603 92 0 0.0 1.0 0.00 0.00 0.00 35 1019.9
20260905093103 91 0 0.0 1.0 0.00 0.00 0.00 36 1020.0
20260905091613 90 0 0.0 1.0 0.00 0.00 0.00 39 1020.1
20260905090104 89 0 0.0 1.0 0.00 0.00 0.00 43 1020.0
20260905084603 87 0 0.0 1.0 0.00 0.00 0.00 46 1020.0
20260905083104 86 0 0.0 1.0 0.00 0.00 0.00 49 1020.0
20260905081609 85 143 0.0 1.0 0.00 0.00 0.00 52 1020.0
20260905080107 84 0 0.0 1.0 0.00 0.00 0.00 55 1019.9
20260905074605 82 0 0.0 1.0 0.00 0.00 0.00 62 1019.7
20260905073104 80 0 0.0 0.0 0.00 0.00 0.00 64 1019.8
20260905071607 78 0 0.0 0.0 0.00 0.00 0.00 68 1019.8
20260905070109 76 0 0.0 0.0 0.00 0.00 0.00 71 1019.8
20260905063104 73 0 0.0 0.0 0.00 0.00 0.00 75 1019.8
20260905061613 72 0 0.0 0.0 0.00 0.00 0.00 76 1019.7
20260905060107 71 0 0.0 0.0 0.00 0.00 0.00 76 1019.6
20260905054607 71 0 0.0 0.0 0.00 0.00 0.00 76 1019.7
20260905053104 70 0 0.0 1.0 0.00 0.00 0.00 77 1019.7
20260905051612 69 0 0.0 0.0 0.00 0.00 0.00 79 1019.8
20260905050112 69 0 0.0 0.0 0.00 0.00 0.00 78 1019.7
20260905044607 68 0 0.0 0.0 0.00 0.00 0.00 79 1019.4